DW8397 Weather Reports


time (UTC)temp
C
wind
direction
speed
KPH
gust
KPH
rain 1hr
cm
rain 24hr
cm
rain mn
cm
humidity
%
barometer
mb
20260502204505 9 282 4.8 14.5 0.00 0.36 0.36 59 1009.0
20260502203004 10 212 4.8 14.5 0.00 0.36 0.36 59 1009.0
20260502201503 11 211 0.0 11.3 0.00 0.36 0.36 60 1009.0
20260502200004 11 246 3.2 14.5 0.00 0.36 0.36 62 1009.2
20260502194604 10 283 3.2 16.1 0.00 0.36 0.36 65 1009.3
20260502193058 10 241 9.7 19.3 0.00 0.36 0.36 66 1009.5
20260502191604 10 290 1.6 14.5 0.00 0.36 0.36 69 1009.5
20260502190059 10 280 3.2 9.7 0.00 0.36 0.36 68 1009.5
20260502184556 10 273 1.6 17.7 0.00 0.36 0.36 67 1009.6
20260502183054 10 313 1.6 14.5 0.00 0.36 0.36 73 1009.8
20260502181552 9 189 3.2 12.9 0.00 0.36 0.36 77 1009.9
20260502163049 7 216 0.0 12.9 0.00 0.36 0.36 87 1010.0
20260502161541 7 187 6.4 16.1 0.00 0.36 0.36 89 1010.0
20260502151557 6 193 1.6 8.0 0.03 0.36 0.36 92 1010.2
20260502123033 5 292 0.0 0.0 0.00 0.33 0.33 93 1010.4
20260502121526 5 298 0.0 0.0 0.00 0.33 0.33 93 1010.2
20260502114525 4 298 0.0 0.0 0.03 0.33 0.33 93 1010.3
20260502113033 5 298 0.0 0.0 0.03 0.33 0.33 93 1010.2
20260502111520 5 298 0.0 0.0 0.03 0.33 0.33 93 1010.3
20260502110021 5 298 0.0 0.0 0.00 0.30 0.30 93 1010.4
20260502104517 5 298 0.0 0.0 0.00 0.30 0.30 93 1010.3
20260502103015 5 298 0.0 0.0 0.03 0.30 0.30 93 1010.2
20260502101515 5 298 0.0 0.0 0.03 0.30 0.30 93 1009.9
20260502091510 5 298 0.0 0.0 0.00 0.28 0.28 93 1010.2
20260502071502 5 298 0.0 0.0 0.03 0.23 0.23 91 1010.4
20260502070002 5 298 0.0 0.0 0.00 0.20 0.20 91 1010.5
20260502064625 5 298 0.0 0.0 0.03 0.20 0.20 90 1010.7
20260502063059 5 298 0.0 0.0 0.03 0.20 0.20 90 1010.8
20260502061556 5 298 0.0 0.0 0.05 0.20 0.20 89 1010.8
20260502060056 5 298 0.0 0.0 0.08 0.20 0.20 88 1010.9
20260502054556 5 298 0.0 0.0 0.10 0.18 0.18 87 1010.8
20260502053053 5 298 0.0 0.0 0.18 0.18 0.18 85 1011.1
20260502051553 5 298 0.0 0.0 0.15 0.15 0.15 84 1011.2
20260502050048 6 298 0.0 0.0 0.13 0.13 0.13 82 1011.2
20260502044546 6 300 0.0 0.0 0.05 0.05 0.05 79 1011.1
20260502043045 7 288 0.0 6.4 0.00 0.00 0.00 75 1011.1
20260502041548 7 248 0.0 11.3 0.00 0.00 0.00 72 1011.0
20260502040037 7 284 0.0 9.7 0.00 0.00 0.00 68 1010.8
20260502034537 7 300 0.0 0.0 0.00 0.00 0.00 66 1010.7
20260502033035 7 355 0.0 0.0 0.00 0.00 0.00 66 1010.7
20260502031535 7 288 0.0 0.0 0.00 0.00 0.00 66 1010.7
20260502030037 7 275 0.0 0.0 0.00 0.00 0.00 64 1010.6
20260502024534 7 274 0.0 0.0 0.00 0.00 0.00 63 1010.7
20260502023046 7 274 0.0 0.0 0.00 0.00 0.00 59 1010.7
20260502021533 8 275 0.0 3.2 0.00 0.00 0.00 57 1010.6
20260502020033 8 248 0.0 3.2 0.00 0.00 0.00 56 1010.7
20260502014535 8 294 1.6 11.3 0.00 0.00 0.00 55 1010.7
20260502013032 7 278 0.0 8.0 0.00 0.00 0.00 57 1010.7
20260502011531 7 229 0.0 3.2 0.00 0.00 0.00 58 1010.6
20260502010034 7 246 1.6 8.0 0.00 0.00 0.00 58 1010.6
20260502004531 8 254 0.0 0.0 0.00 0.00 0.00 58 1010.3
20260502003028 8 254 0.0 0.0 0.00 0.00 0.00 53 1010.2
20260502001531 9 272 0.0 0.0 0.00 0.00 0.00 52 1010.0
20260502000044 9 305 1.6 8.0 0.00 0.00 0.00 50 1009.8
20260501234529 10 360 0.0 0.0 0.00 0.00 0.00 51 1009.6
20260501233026 10 273 0.0 0.0 0.00 0.00 0.00 49 1009.3
20260501231525 11 272 0.0 0.0 0.00 0.00 0.00 45 1009.2
20260501230030 11 270 0.0 11.3 0.00 0.00 0.00 43 1009.0
20260501224531 11 342 1.6 12.9 0.00 0.08 0.00 44 1008.9
20260501223024 12 236 0.0 11.3 0.00 0.08 0.00 40 1008.9
20260501221523 12 211 1.6 11.3 0.00 0.08 0.00 41 1008.8
20260501220030 12 250 1.6 14.5 0.00 0.08 0.00 40 1008.9
20260501214525 12 296 4.8 12.9 0.00 0.25 0.00 40 1009.0
20260501213021 12 355 8.0 14.5 0.00 0.25 0.00 39 1008.9
20260501211522 12 289 9.7 20.9 0.00 0.25 0.00 40 1009.0
20260501210023 12 333 6.4 16.1 0.00 0.25 0.00 40 1009.0